When you browse on this site, cookies collect data to enhance your experience and personalize the content and advertising you see.
Visit our Privacy Policy to learn more. By continuing to use the site, you agree to this use of cookies and data.
  • In Hungary
  • List of Countries
  • For 7 days
  • Water Temperature
  • Satellite Maps
  • Weather Map
  • News
  • Weather Widgets
  • user-avatar
    Login

    Hourly Weather Vidin

    Today, 13 December, Thursday

    Time Temperature Precipitation Wind Pressure Humidity
    00:00 +1°C° 0 mm 3 mps 762 mmHg 78%
    01:00 0°C° 0 mm 3 mps 762 mmHg 79%
    02:00 +1°C° 0 mm 2 mps 762 mmHg 79%
    03:00 +1°C° 0 mm 2 mps 762 mmHg 79%
    04:00 +1°C° 0 mm 2 mps 762 mmHg 79%
    05:00 +1°C° 0 mm 2 mps 762 mmHg 79%
    06:00 +1°C° 0 mm 2 mps 762 mmHg 78%
    07:00 +1°C° 0 mm 2 mps 762 mmHg 78%
    08:00 +1°C° 0 mm 2 mps 762 mmHg 78%
    09:00 +2°C° 0 mm 2 mps 762 mmHg 71%
    10:00 +3°C° 0 mm 2 mps 762 mmHg 65%
    11:00 +5°C° 0 mm 2 mps 762 mmHg 58%
    12:00 +5°C° 0 mm 2 mps 761 mmHg 55%
    13:00 +6°C° 0 mm 2 mps 761 mmHg 51%
    14:00 +6°C° 0 mm 2 mps 761 mmHg 48%
    15:00 +6°C° 0 mm 1 mps 761 mmHg 52%
    16:00 +5°C° 0 mm 1 mps 761 mmHg 57%
    17:00 +3°C° 0 mm 0 mps 761 mmHg 61%
    18:00 +3°C° 0 mm 0 mps 761 mmHg 62%
    19:00 +4°C° 0 mm 1 mps 761 mmHg 63%
    20:00 +3°C° 0 mm 1 mps 761 mmHg 64%
    21:00 +3°C° 0 mm 1 mps 761 mmHg 65%
    22:00 +3°C° 0 mm 1 mps 761 mmHg 66%
    23:00 +3°C° 0 mm 1 mps 761 mmHg 66%

    Tomorrow, 14 December, Friday

    Time Temperature Precipitation Wind Pressure Humidity
    00:00 +3°C° 0 mm 1 mps 761 mmHg 67%
    01:00 +3°C° 0 mm 1 mps 761 mmHg 67%
    02:00 +3°C° 0 mm 1 mps 761 mmHg 68%
    03:00 +2°C° 0 mm 1 mps 761 mmHg 68%
    04:00 +2°C° 0 mm 1 mps 761 mmHg 69%
    05:00 +2°C° 0 mm 1 mps 761 mmHg 70%
    06:00 +2°C° 0.1 mm 1 mps 761 mmHg 71%
    07:00 +2°C° 0.1 mm 1 mps 762 mmHg 72%
    08:00 +2°C° 0.1 mm 1 mps 762 mmHg 73%
    09:00 +3°C° 0.1 mm 1 mps 762 mmHg 71%
    10:00 +3°C° 0.1 mm 1 mps 762 mmHg 69%
    11:00 +3°C° 0.1 mm 2 mps 762 mmHg 66%
    12:00 +3°C° 0.1 mm 2 mps 762 mmHg 65%
    13:00 +4°C° 0.1 mm 2 mps 762 mmHg 63%
    14:00 +4°C° 0.1 mm 2 mps 761 mmHg 62%
    15:00 +4°C° 0.3 mm 2 mps 762 mmHg 65%
    16:00 +3°C° 0.3 mm 2 mps 762 mmHg 68%
    17:00 +3°C° 0.3 mm 2 mps 762 mmHg 71%
    18:00 +2°C° 0.7 mm 2 mps 762 mmHg 75%
    19:00 +2°C° 0.7 mm 2 mps 762 mmHg 78%
    20:00 +1°C° 0.7 mm 3 mps 762 mmHg 82%
    21:00 +1°C° 0.7 mm 3 mps 762 mmHg 85%
    22:00 0°C° 0.7 mm 3 mps 762 mmHg 89%
    23:00 0°C° 0.7 mm 3 mps 762 mmHg 92%

    Day after tomorrow, 15 December, Saturday

    Time Temperature Precipitation Wind Pressure Humidity
    00:00 0°C° 0.7 mm 3 mps 762 mmHg 93%
    01:00 0°C° 0.7 mm 3 mps 762 mmHg 94%
    02:00 0°C° 0.7 mm 3 mps 761 mmHg 95%
    03:00 0°C° 0.5 mm 3 mps 761 mmHg 95%
    04:00 0°C° 0.5 mm 3 mps 761 mmHg 95%
    05:00 0°C° 0.5 mm 3 mps 760 mmHg 95%
    06:00 0°C° 0.4 mm 3 mps 760 mmHg 95%
    07:00 -1°C° 0.4 mm 4 mps 760 mmHg 95%
    08:00 -1°C° 0.4 mm 4 mps 760 mmHg 95%
    09:00 0°C° 0.3 mm 4 mps 760 mmHg 95%
    10:00 0°C° 0.3 mm 4 mps 760 mmHg 95%
    11:00 0°C° 0.3 mm 4 mps 760 mmHg 96%
    12:00 0°C° 0.2 mm 4 mps 760 mmHg 96%
    13:00 +1°C° 0.2 mm 3 mps 760 mmHg 96%
    14:00 +2°C° 0.2 mm 3 mps 759 mmHg 96%
    15:00 +1°C° 0.4 mm 3 mps 759 mmHg 96%
    16:00 +1°C° 0.4 mm 3 mps 759 mmHg 97%
    17:00 +1°C° 0.4 mm 3 mps 759 mmHg 97%
    18:00 +2°C° 0.7 mm 2 mps 759 mmHg 97%
    19:00 +2°C° 0.7 mm 2 mps 759 mmHg 97%
    20:00 +2°C° 0.7 mm 2 mps 759 mmHg 97%
    21:00 +2°C° 0.7 mm 2 mps 759 mmHg 97%
    22:00 +3°C° 0.7 mm 1 mps 759 mmHg 98%
    23:00 +3°C° 0.7 mm 1 mps 759 mmHg 98%

    16 December, Sunday

    Time Temperature Precipitation Wind Pressure Humidity
    00:00 +3°C° 0.6 mm 1 mps 759 mmHg 97%
    01:00 +3°C° 0.6 mm 1 mps 759 mmHg 97%
    02:00 +2°C° 0.6 mm 2 mps 759 mmHg 97%
    03:00 +2°C° 0.5 mm 2 mps 759 mmHg 96%
    04:00 +2°C° 0.5 mm 2 mps 759 mmHg 94%
    05:00 +1°C° 0.5 mm 3 mps 759 mmHg 93%
    06:00 0°C° 0.5 mm 3 mps 759 mmHg 92%
    07:00 -1°C° 0.5 mm 4 mps 760 mmHg 91%
    08:00 -1°C° 0.5 mm 4 mps 760 mmHg 90%
    09:00 -1°C° 0.5 mm 4 mps 760 mmHg 90%
    10:00 -1°C° 0.5 mm 4 mps 761 mmHg 89%
    11:00 -1°C° 0.5 mm 4 mps 761 mmHg 89%
    12:00 0°C° 0.2 mm 4 mps 761 mmHg 89%
    13:00 0°C° 0.2 mm 4 mps 761 mmHg 88%
    14:00 0°C° 0.2 mm 5 mps 761 mmHg 87%
    15:00 -1°C° 0 mm 4 mps 761 mmHg 86%
    16:00 -1°C° 0 mm 4 mps 762 mmHg 85%
    17:00 -2°C° 0 mm 4 mps 762 mmHg 84%
    18:00 -2°C° 0 mm 4 mps 762 mmHg 84%
    19:00 -3°C° 0 mm 4 mps 763 mmHg 85%
    20:00 -3°C° 0 mm 4 mps 763 mmHg 85%
    21:00 -4°C° 0 mm 3 mps 763 mmHg 86%
    22:00 -4°C° 0 mm 3 mps 763 mmHg 86%
    23:00 -5°C° 0 mm 3 mps 763 mmHg 87%

    17 December, Monday

    Time Temperature Precipitation Wind Pressure Humidity
    00:00 -5°C° 0 mm 3 mps 763 mmHg 87%
    01:00 -4°C° 0 mm 2 mps 763 mmHg 86%
    02:00 -4°C° 0 mm 2 mps 763 mmHg 86%
    03:00 -4°C° 0 mm 2 mps 763 mmHg 86%
    04:00 -4°C° 0 mm 2 mps 762 mmHg 85%
    05:00 -4°C° 0 mm 2 mps 762 mmHg 85%
    06:00 -4°C° 0 mm 2 mps 762 mmHg 84%
    07:00 -4°C° 0 mm 2 mps 762 mmHg 83%
    08:00 -3°C° 0 mm 2 mps 762 mmHg 83%
    09:00 -2°C° 0 mm 2 mps 762 mmHg 82%
    10:00 +1°C° 0 mm 1 mps 762 mmHg 82%
    11:00 +2°C° 0 mm 1 mps 762 mmHg 82%
    12:00 +2°C° 0 mm 1 mps 762 mmHg 84%
    13:00 +3°C° 0 mm 1 mps 762 mmHg 86%
    14:00 +3°C° 0 mm 1 mps 762 mmHg 88%
    15:00 +2°C° 0 mm 1 mps 762 mmHg 87%
    16:00 +2°C° 0 mm 1 mps 762 mmHg 86%
    17:00 +1°C° 0 mm 1 mps 763 mmHg 85%
    18:00 -1°C° 0 mm 2 mps 763 mmHg 84%
    19:00 -2°C° 0 mm 2 mps 763 mmHg 84%
    20:00 -2°C° 0 mm 2 mps 764 mmHg 84%
    21:00 -2°C° 0 mm 2 mps 764 mmHg 85%
    22:00 -2°C° 0 mm 2 mps 764 mmHg 85%
    23:00 -2°C° 0 mm 2 mps 765 mmHg 85%

    18 December, Tuesday

    Time Temperature Precipitation Wind Pressure Humidity
    00:00 -2°C° 0 mm 2 mps 765 mmHg 85%
    01:00 -2°C° 0 mm 2 mps 765 mmHg 86%
    02:00 -3°C° 0 mm 2 mps 765 mmHg 86%
    03:00 -3°C° 0 mm 2 mps 765 mmHg 86%
    04:00 -3°C° 0 mm 2 mps 765 mmHg 86%
    05:00 -3°C° 0 mm 2 mps 765 mmHg 86%
    06:00 -4°C° 0 mm 2 mps 765 mmHg 86%
    07:00 -4°C° 0 mm 2 mps 765 mmHg 86%
    08:00 -4°C° 0 mm 2 mps 765 mmHg 86%
    09:00 -3°C° 0 mm 2 mps 765 mmHg 85%
    10:00 -2°C° 0 mm 2 mps 765 mmHg 84%
    11:00 -1°C° 0 mm 2 mps 765 mmHg 83%
    12:00 +1°C° 0 mm 2 mps 765 mmHg 83%
    13:00 +1°C° 0 mm 2 mps 764 mmHg 83%
    14:00 +2°C° 0 mm 2 mps 764 mmHg 84%
    15:00 +1°C° 0 mm 2 mps 764 mmHg 85%
    16:00 -1°C° 0 mm 2 mps 764 mmHg 87%
    17:00 -2°C° 0 mm 2 mps 764 mmHg 88%
    18:00 -2°C° 0 mm 2 mps 765 mmHg 88%
    19:00 -3°C° 0 mm 2 mps 765 mmHg 88%
    20:00 -3°C° 0 mm 2 mps 765 mmHg 88%
    21:00 -3°C° 0 mm 2 mps 765 mmHg 88%
    22:00 -3°C° 0 mm 2 mps 765 mmHg 87%
    23:00 -4°C° 0 mm 2 mps 765 mmHg 87%
    Show more